Weather History for KAQV - August, 2013

Change the Weather History Date:

Friday, August 2, 2013

  Actual Average (KPOE) Record (KPOE)
Temperature  
Mean Temperature 85 °F -  
Max Temperature 97 °F 91 °F 104 °F (1998)
Min Temperature 73 °F 71 °F 71 °F (1997)
Cooling Degree Days 20    
Growing Degree Days 35 (Base 50)    
Moisture  
Dew Point 73 °F    
Average Humidity 70    
Maximum Humidity 97    
Minimum Humidity 41    
Precipitation  
Precipitation 0.01 in - - ()
Sea Level Pressure  
Sea Level Pressure 29.95 in    
Wind  
Wind Speed 1 mph (NE)    
Max Wind Speed 6 mph    
Max Gust Speed -    
Visibility 9 miles    
Events      
Averages and records for this station are not official NWS values.
T = Trace of Precipitation, MM = Missing Value Source: NWS Daily Summary

Daily Weather History Graph

Daily Weather History Graph

Search for Another Location

Airport or City:

Trip Planner

Search our weather history database for the weather conditions in past years. The results will help you decide how hot, cold, wet, or windy it might be!

Date:

Astronomy

Aug. 02, 2013 Rise Set
Actual Time 6:30 AM CDT 8:07 PM CDT
Civil Twilight 6:04 AM CDT 8:34 PM CDT
Nautical Twilight 5:32 AM CDT 9:05 PM CDT
Astronomical Twilight 4:59 AM CDT 9:38 PM CDT
Moon 2:54 AM CDT (8/2) 5:03 PM CDT (8/2)
Length of Visible Light 14h 30m
Length of Day
13h 37m
Waning Crescent, 15% of the Moon is Illuminated
Aug 2
Waning Crescent
Aug 6
New
Aug 14
First Quarter
Aug 20
Full
Aug 28
Last Quarter

Hourly Weather History & Observations

Time (CDT) Temp. Heat Index Dew Point Humidity Pressure Visibility Wind Dir Wind Speed Gust Speed Precip Events Conditions
12:56 AM 78.1 °F - 75.0 °F 90% 29.94 in 9.0 mi Calm Calm - N/A   Partly Cloudy
1:56 AM 77.0 °F - 73.9 °F 90% 29.92 in 9.0 mi Calm Calm - N/A   Clear
2:56 AM 75.9 °F - 73.0 °F 91% 29.92 in 8.0 mi Calm Calm - N/A   Clear
3:56 AM 75.0 °F - 73.0 °F 94% 29.93 in 6.0 mi Calm Calm - N/A   Clear
4:56 AM 75.0 °F - 73.0 °F 94% 29.94 in 6.0 mi Calm Calm - N/A   Partly Cloudy
5:56 AM 73.9 °F - 73.0 °F 97% 29.95 in 5.0 mi Calm Calm - N/A   Clear
6:56 AM 75.0 °F - 73.0 °F 94% 29.96 in 5.0 mi Calm Calm - N/A   Scattered Clouds
7:35 AM 77.0 °F - 73.4 °F 89% 29.97 in 2.5 mi Calm Calm - N/A   Clear
7:42 AM 78.8 °F - 73.4 °F 83% 29.97 in 6.0 mi Calm Calm - N/A   Clear
7:56 AM 79.0 °F - 75.0 °F 88% 29.96 in 10.0 mi Calm Calm - N/A   Clear
8:56 AM 86.0 °F 95.1 °F 75.0 °F 70% 29.97 in 10.0 mi Variable 3.5 mph - N/A   Scattered Clouds
9:56 AM 89.1 °F 98.0 °F 73.9 °F 61% 29.97 in 10.0 mi Variable 5.8 mph - N/A   Clear
10:56 AM 93.0 °F 101.9 °F 73.0 °F 52% 29.97 in 10.0 mi Variable 3.5 mph - N/A   Clear
11:56 AM 93.0 °F 100.7 °F 72.0 °F 50% 29.96 in 10.0 mi Calm Calm - N/A   Partly Cloudy
12:56 PM 93.9 °F 100.8 °F 71.1 °F 47% 29.97 in 10.0 mi SW 4.6 mph - N/A   Partly Cloudy
1:56 PM 97.0 °F 103.5 °F 70.0 °F 41% 29.95 in 10.0 mi Variable 4.6 mph - N/A   Mostly Cloudy
2:56 PM 95.0 °F 101.3 °F 70.0 °F 44% 29.94 in 10.0 mi Variable 3.5 mph - N/A   Overcast
3:56 PM 91.0 °F 98.2 °F 72.0 °F 53% 29.92 in 10.0 mi Variable 3.5 mph - 0.01 in   Partly Cloudy
4:56 PM 95.0 °F 100.7 °F 69.1 °F 43% 29.91 in 10.0 mi NNE 4.6 mph - N/A   Clear
5:56 PM 96.1 °F 104.9 °F 72.0 °F 46% 29.91 in 10.0 mi Variable 3.5 mph - N/A   Mostly Cloudy
6:56 PM 93.0 °F 101.9 °F 73.0 °F 52% 29.91 in 10.0 mi ENE 3.5 mph - N/A   Clear
7:56 PM 90.0 °F 97.9 °F 73.0 °F 57% 29.92 in 10.0 mi Calm Calm - N/A   Clear
8:56 PM 84.9 °F 93.3 °F 75.0 °F 72% 29.93 in 10.0 mi Calm Calm - N/A   Clear
9:56 PM 84.0 °F 93.7 °F 77.0 °F 79% 29.96 in 10.0 mi Calm Calm - N/A   Clear
10:56 PM 84.0 °F 91.9 °F 75.0 °F 74% 29.96 in 10.0 mi Variable 3.5 mph - N/A   Clear
11:56 PM 82.0 °F 88.6 °F 75.0 °F 79% 29.98 in 10.0 mi Variable 3.5 mph - N/A   Clear